This is the latest recevied weather packets stored in our database for station/object G4MDP-13. If no packets are shown the sender has not sent any weather packets the latest 10 day(s).
| Time | Temp. | Humidity | Pressure | Rain* | Wind** | Luminosity | Snow |
|---|---|---|---|---|---|---|---|
| 1778003358 | 15.56° C | 61% | 1004.8 hPa | 0 mm | - | - | - |
| 1778003357 | 15.56° C | 61% | 1004.8 hPa | 0 mm | - | - | - |
| 1778002517 | 16.11° C | 62% | 1004.8 hPa | 0 mm | - | - | - |
| 1778002460 | 16.11° C | 62% | 1004.9 hPa | 0 mm | - | - | - |
| 1778002458 | 16.11° C | 62% | 1004.9 hPa | 0 mm | - | - | - |
| 1778001558 | 15.56° C | 58% | 1005 hPa | 0 mm | - | - | - |
| 1778001558 | 15.56° C | 58% | 1005 hPa | 0 mm | - | - | - |
| 1778000717 | 15.56° C | 59% | 1005 hPa | 0 mm | - | - | - |
| 1778000660 | 15.56° C | 59% | 1005 hPa | 0 mm | - | - | - |
| 1778000658 | 15.56° C | 59% | 1005 hPa | 0 mm | - | - | - |
| 1777999758 | 16.11° C | 63% | 1005.1 hPa | 0 mm | - | - | - |
| 1777999757 | 16.11° C | 63% | 1005.1 hPa | 0 mm | - | - | - |
| 1777998917 | 16.67° C | 44% | 1004.9 hPa | 0 mm | - | - | - |
| 1777998858 | 16.67° C | 45% | 1004.8 hPa | 0 mm | - | - | - |
| 1777997958 | 16.67° C | 54% | 1004.8 hPa | 0 mm | - | - | - |
| 1777997957 | 16.67° C | 54% | 1004.8 hPa | 0 mm | - | - | - |
| 1777997117 | 16.67° C | 56% | 1004.9 hPa | 0 mm | - | - | - |
| 1777997060 | 16.67° C | 55% | 1004.9 hPa | 0 mm | - | - | - |
| 1777997058 | 16.67° C | 55% | 1004.9 hPa | 0 mm | - | - | - |
| 1777996158 | 16.11° C | 57% | 1004.9 hPa | 0 mm | - | - | - |
| 1777996157 | 16.11° C | 57% | 1004.9 hPa | 0 mm | - | - | - |
| 1777995317 | 16.11° C | 58% | 1004.8 hPa | 0 mm | - | - | - |
| 1777995260 | 16.11° C | 57% | 1004.9 hPa | 0 mm | - | - | - |
| 1777995258 | 16.11° C | 57% | 1004.9 hPa | 0 mm | - | - | - |
| 1777994358 | 17.22° C | 55% | 1004.8 hPa | 0 mm | - | - | - |
* Rain latest hour (hover to see other rain measurements)
** Current wind speed in m/s (hover to see current wind gust speed)